Regional Weather Roundup
Issued by NWS Jackson, KY

Home | Current Version | Previous Version | Text Only | Print | Product List | Glossary Off
Versions: 1 2 3 4 5 6 7 8 9 10 11 12 13 14 15 16 17 18 19 20 21 22 23 24 25 26 27 28 29 30 31 32 33 34 35 36 37 38 39 40 41 42 43 44 45 46 47 48 49 50

000
ASUS43 KJKL 231810
RWRJKL

EAST KENTUCKY HOURLY WEATHER ROUNDUP
NATIONAL WEATHER SERVICE JACKSON KY
100 PM EST THU FEB 23 2017

NOTE: "FAIR" INDICATES FEW OR NO CLOUDS BELOW 12,000 FEET WITH
NO SIGNIFICANT WEATHER AND/OR OBSTRUCTIONS TO VISIBILITY.

* THESE REPORTS ARE NOT UNDER NWS QUALITY CONTROL AND MAY NOT
  REPORT WEATHER SUCH AS PRECIPITATION AND FOG.

KYZ079-080-083-085-087-088-110-112-115-119-120-231900
...EASTERN KENTUCKY...

CITY           SKY/WX    TMP DP  RH WIND       PRES   REMARKS
JACKSON        CLOUDY    66  55  67 CALM      29.87F
6HR MIN TEMP:  54; 6HR MAX TEMP:  66;

LONDON         CLOUDY    67  53  61 S7        29.85F
6HR MIN TEMP:  47; 6HR MAX TEMP:  67;

SOMERSET*      CLOUDY    64  54  68 S5        29.86F
MONTICELLO*    CLOUDY    69  57  65 W10       29.85F
6HR MIN TEMP:  45; 6HR MAX TEMP:  71;

WILLIAMSBURG*  PTCLDY    70  55  60 S7        29.85F
MIDDLESBORO*   CLOUDY    64  56  73 CALM      29.88F
6HR MIN TEMP:  44; 6HR MAX TEMP:  64;

HARLAN APT*    CLOUDY    63  52  67 CALM      29.89F
PIKE CO APT*   CLOUDY    60  55  83 S5        29.88F
BIG SANDY APT* CLOUDY    64  55  74 S3        29.88F
6HR MIN TEMP:  52; 6HR MAX TEMP:  64;

MOREHEAD APT*  CLOUDY    63  55  77 S8        29.87F
ASHLAND*       CLOUDY    63  57  82 CALM      29.83F
$$

KYZ035-036-041-042-044-050-067-078-099-231900
...CENTRAL KENTUCKY...

CITY           SKY/WX    TMP DP  RH WIND       PRES   REMARKS
MT STERLING*   CLOUDY    63  55  77 SW6       29.86F
FLEMING/MASON* CLOUDY    62  57  83 S14       29.84F
DANVILLE*      CLOUDY    66  55  68 SW10      29.85F
LEXINGTON      CLOUDY    66  56  70 SW12      29.83F
6HR MIN TEMP:  56; 6HR MAX TEMP:  66;

FRANKFORT      CLOUDY    66  55  67 S12       29.81F
6HR MIN TEMP:  56; 6HR MAX TEMP:  66;

LOUISVILLE     CLOUDY    68  56  65 S13       29.79F
6HR MIN TEMP:  61; 6HR MAX TEMP:  69;

LEBANON*       CLOUDY    66  57  72 S10       29.83F
GLASGOW*       CLOUDY    68  56  67 S8        29.82F
BOWLING GREEN  CLOUDY    70  57  63 S15       29.81F
6HR MIN TEMP:  55; 6HR MAX TEMP:  70;

$$

KYZ091>093-OHZ055-061-077-WVZ005-015-034-035-042-231900
...SOUTHERN OHIO/WEST VIRGINIA...

CITY           SKY/WX    TMP DP  RH WIND       PRES   REMARKS
COVINGTON      CLOUDY    68  57  68 SW8       29.78F
COLUMBUS       CLOUDY    67  57  70 SW14      29.79F
DAYTON         PTSUNNY   65  55  70 W12       29.78F
WILMINGTON     CLOUDY    64  57  78 SW12      29.80S
HUNTINGTON     CLOUDY    62  55  77 S6        29.86F
CHARLESTON     CLOUDY    63  53  70 S7        29.87F
PINEVILLE*     CLOUDY    60  53  77 MISG      29.95F
BECKLEY        CLOUDY    60  49  66 W7        29.91F
BLUEFIELD      CLOUDY    62  47  57 SW7       29.92F
LOGAN CO APT*  CLOUDY    57  55  94 CALM      29.89F
$$

VAZ002-007-008-TNZ017-027-036-066-071-231900
...SOUTHWEST VIRGINIA/EAST TENNESSEE...

CITY           SKY/WX    TMP DP  RH WIND       PRES   REMARKS
WISE*          CLOUDY    63  50  63 CALM      29.92F
JONESVILLE*      N/A    N/A N/A N/A W3        29.91F
ABINGDON*      SUNNY     68  53  57 N3        29.91F
BRISTOL        MOSUNNY   68  53  58 W5        29.89F
MORRISTOWN*    CLEAR     66  54  63 VRB3      29.87F
SEVIERVILLE*   CLEAR     66  54  63 NE5       29.86F
KNOXVILLE      MOSUNNY   64  55  72 NW6       29.87F
LAFOLLETTE*    PTCLDY    61  55  82 CALM      29.91F
OAK RIDGE      MOSUNNY   62  55  77 CALM      29.89F
CROSSVILLE     PTSUNNY   66  53  63 S8        29.88F
NASHVILLE      CLOUDY    70  56  61 SW9       29.83F
$$

...KEY TO REMARKS...
VSB - VISIBILITY IN MILES
WCI - WIND CHILL INDEX
HX  - HEAT INDEX

$$



USA.gov is the U.S. government's official web portal to all federal, state and local government web resources and services.